Wind_Speed
37 39 37 37 32 30 29 26 23 16 21 24 21 21 23 26 23 20 18 17 16 16 13 16 16 14 14 13 11 10 7 7 6 5 10 12 13 12 12 13 14 21 24
38 38 40 39 37 31 32 31 27 23 20 19 19 19 22 24 24 22 19 20 21 21 20 18 16 19 20 17 15 15 13 9 8 8 12 16 16 15 15 18 20 21 23
34 37 35 37 35 38 37 33 32 27 24 23 21 20 19 19 19 24 22 21 24 22 20 20 20 19 20 19 19 17 16 13 13 13 15 14 15 17 17 15 15 21 23
34 34 34 36 35 35 35 34 33 33 26 24 24 24 24 23 23 22 21 20 23 23 23 24 23 22 23 23 21 21 19 19 19 18 18 19 20 20 19 18 17 18 22
32 31 35 35 33 32 32 31 30 30 32 32 29 28 27 27 27 26 24 23 23 24 25 25 25 25 25 24 23 23 22 21 21 22 21 21 21 22 22 19 17 19 18
31 33 34 34 33 33 33 32 31 30 31 30 31 30 29 27 27 26 24 24 25 27 27 26 27 26 25 24 23 22 22 23 21 21 20 19 25 26 24 20 13 8 5
31 30 32 34 34 33 34 32 34 35 36 32 32 30 28 25 25 24 23 24 25 25 24 26 27 24 24 23 22 21 21 20 20 22 24 25 27 29 27 27 25 24 19
31 31 33 34 35 35 34 34 31 28 28 32 28 26 24 23 21 19 19 23 25 24 23 22 21 21 20 17 16 16 18 20 22 22 24 26 27 26 26 28 28 26 27
32 36 35 34 34 33 34 34 33 30 25 23 22 20 18 18 19 19 18 18 20 16 13 10 10 11 12 12 12 15 17 20 18 18 20 22 24 26 26 25 27 18 15
30 34 32 29 28 29 30 25 26 23 21 20 17 15 14 14 15 13 10 9 8 8 7 6 5 5 5 6 8 10 14 17 19 21 21 21 21 22 22 21 24 19 18
31 27 25 25 23 23 24 24 21 14 13 12 12 10 10 8 9 9 9 9 9 8 6 5 5 4 4 5 7 6 7 11 13 14 15 14 13 13 11 10 15 21 19
26 25 21 16 14 11 11 11 10 11 13 14 14 10 9 7 6 6 7 9 9 9 7 6 4 2 3 3 2 4 6 7 9 10 12 14 15 14 12 11 12 13 16
27 24 21 18 12 9 13 12 12 14 15 16 15 14 12 9 6 4 4 5 6 7 7 6 8 7 7 7 8 9 9 12 13 15 15 14 12 10 9 7 5 6 5
30 26 22 19 18 17 16 17 19 19 19 19 17 16 14 11 9 9 8 8 9 11 12 11 9 9 9 8 8 9 11 12 15 15 14 14 14 16 15 14 16 19 21
32 28 24 24 24 22 20 17 18 20 21 22 22 21 19 15 14 10 9 9 10 11 13 11 10 7 5 5 4 5 5 5 9 11 11 12 14 14 12 11 14 15 15
26 26 28 28 23 21 19 16 17 17 17 18 19 19 17 13 13 13 10 9 10 10 9 7 6 6 7 8 6 4 2 2 2 5 6 8 10 11 9 8 7 8 9
27 28 31 31 30 27 24 22 19 16 17 17 16 14 13 16 15 15 13 11 11 11 11 10 9 9 9 9 10 6 2 3 2 1 1 5 7 7 7 6 4 6 6
33 36 32 30 31 31 30 29 27 24 20 16 16 16 16 14 14 13 13 13 15 16 15 13 12 9 9 10 9 7 5 3 4 4 4 4 5 4 3 2 2 1 2
33 32 30 30 30 33 31 28 25 23 22 21 18 17 16 16 14 13 14 15 16 17 16 13 10 10 13 12 11 9 8 6 5 4 7 6 6 6 5 4 4 4 3
29 31 32 32 27 27 29 28 26 23 23 22 20 20 19 18 17 18 17 17 16 14 13 13 13 11 12 10 11 11 10 11 11 10 8 7 7 7 7 6 6 6 6
25 30 34 31 30 27 30 27 29 27 26 27 24 23 23 23 22 21 21 21 19 17 14 12 13 13 15 14 12 12 11 13 13 12 12 12 10 10 9 10 10 11 11
20 19 22 21 18 28 29 31 30 29 29 27 25 24 23 22 20 21 20 19 16 15 15 14 13 15 15 18 19 16 15 16 15 15 15 15 14 13 13 13 13 14 15
13 20 15 16 16 21 29 23 26 25 27 29 27 26 27 27 23 21 20 17 16 16 15 16 13 14 17 18 20 21 18 17 14 18 18 17 19 19 18 18 18 16 18
25 23 28 24 18 16 22 21 19 23 29 29 28 28 28 26 24 21 19 16 15 13 13 14 16 17 15 14 14 18 20 17 17 13 14 20 22 21 21 21 21 21 21
28 33 24 18 18 18 10 19 18 13 21 29 28 28 26 26 25 23 21 19 15 16 15 15 17 17 16 13 13 18 17 18 18 16 14 18 22 22 24 26 26 24 22
29 16 18 22 24 18 13 10 14 13 14 19 25 29 28 27 24 24 22 20 19 20 17 17 18 20 19 18 17 19 19 17 20 23 22 21 23 24 21 22 19 18 19
Wind_Direction
199 204 206 209 211 214 219 221 219 213 204 206 214 216 217 222 219 221 228 231 235 244 251 256 259 261 274 284 263 239 239 240 217 257 239 204 222 252 277 265 245 243 241
201 202 206 212 216 220 224 222 221 223 222 222 222 224 226 225 225 228 231 240 238 240 247 255 259 257 267 267 267 270 268 270 247 247 247 234 246 266 275 268 259 251 245
195 202 205 210 217 223 228 230 227 228 230 232 232 235 231 233 234 231 249 246 241 245 252 253 255 262 266 270 269 272 270 272 269 274 276 278 262 266 280 273 268 257 252
194 198 201 206 215 223 228 230 233 229 231 233 236 240 236 238 241 243 249 245 243 249 254 257 262 262 261 268 270 270 271 269 271 269 271 275 276 280 280 282 275 263 260
192 197 204 209 213 221 228 230 231 233 233 239 242 244 244 244 247 249 253 253 253 254 258 261 265 265 268 268 274 275 274 270 271 268 268 269 271 277 273 283 281 282 266
192 200 207 211 213 220 227 230 231 234 236 238 241 243 244 245 251 252 255 258 260 260 262 266 265 265 266 269 270 270 274 277 277 272 266 259 271 275 273 274 268 263 250
196 200 206 211 215 221 228 232 236 237 237 243 241 239 244 250 253 255 258 258 262 263 263 266 269 272 269 272 274 272 273 269 270 275 270 265 269 273 272 271 266 260 255
197 203 211 215 218 224 228 233 237 238 239 235 235 237 244 249 255 259 258 255 259 264 264 266 266 266 264 265 269 272 275 283 283 279 275 278 274 274 272 268 271 270 265
198 205 212 218 221 227 227 234 235 230 235 235 237 239 237 247 254 259 260 263 260 260 251 245 253 250 251 264 274 281 285 288 291 285 278 277 276 276 275 271 262 250 251
203 209 219 221 222 228 231 231 229 232 235 234 232 232 232 238 244 246 250 233 222 213 214 211 213 234 254 272 285 292 298 304 305 298 291 286 284 284 285 283 275 252 251
211 204 199 208 224 232 237 239 233 212 211 205 206 204 206 202 195 208 213 221 219 206 211 209 208 221 249 279 295 303 307 316 320 321 326 331 324 314 315 315 293 270 255
193 181 186 201 194 183 182 184 201 219 205 180 174 176 183 187 194 210 218 222 219 214 202 195 184 170 131 105 66 26 2 346 2 8 7 3 0 358 350 334 308 293 273
175 173 170 165 178 192 189 193 199 203 195 175 169 171 170 177 182 182 178 197 197 190 169 150 137 135 125 104 79 69 50 53 50 46 34 24 13 3 6 20 34 51 40
169 166 174 175 173 187 184 189 193 191 185 177 183 181 183 186 179 167 156 150 143 146 140 133 134 134 122 110 77 57 54 58 61 66 63 56 45 43 55 74 76 72 70
165 169 172 170 175 176 177 182 190 187 190 190 195 191 189 200 198 177 167 151 142 148 146 137 139 143 148 143 113 46 21 61 84 84 71 56 51 53 54 55 76 80 75
157 164 169 170 174 179 177 170 184 193 195 197 196 192 199 205 193 190 188 190 184 176 177 186 197 209 213 236 233 243 239 237 100 94 66 43 35 34 42 60 71 76 89
167 170 171 173 178 175 173 176 167 170 181 190 189 193 199 206 197 198 199 199 194 193 206 214 219 221 227 227 218 225 253 257 248 158 1 8 359 3 24 36 56 88 101
179 177 169 172 179 180 183 188 186 185 183 189 198 199 196 193 198 209 217 210 204 210 213 205 215 213 206 210 213 228 235 214 228 266 259 284 308 325 339 8 30 162 148
176 175 173 176 181 185 187 192 193 194 200 202 197 197 194 195 196 200 199 199 202 201 202 209 217 227 224 227 222 233 227 240 231 244 252 252 263 282 288 274 262 245 254
179 179 180 179 185 186 191 188 189 191 195 202 203 198 188 189 188 190 194 196 197 202 208 221 220 223 211 215 221 218 217 226 231 230 228 248 258 268 264 259 251 256 256
179 183 194 188 193 188 195 190 193 192 196 204 205 200 198 191 191 192 196 205 213 216 220 228 225 224 218 217 222 224 224 231 238 238 238 236 238 251 259 248 259 267 262
168 191 166 175 181 197 196 194 196 198 200 205 200 205 204 200 199 201 205 213 224 229 225 229 227 219 230 229 226 227 232 233 232 235 239 236 238 239 242 247 255 265 257
235 237 211 203 195 203 199 190 190 199 202 209 200 199 200 207 209 207 209 218 230 233 225 227 238 229 239 243 243 242 241 244 250 248 241 241 239 240 242 249 257 260 256
235 222 209 201 198 218 217 208 200 206 214 210 203 202 204 211 209 215 212 225 247 233 227 225 229 233 242 241 247 240 243 251 250 258 247 240 243 242 245 249 254 259 262
214 218 196 195 197 208 203 213 216 191 205 214 213 210 211 219 217 213 220 222 225 232 230 232 237 234 234 245 250 245 246 249 248 253 247 234 241 248 245 249 252 254 258
217 209 221 215 200 186 190 190 190 183 186 207 212 214 212 213 216 211 215 225 229 222 227 225 222 227 232 237 239 235 241 241 247 245 247 243 239 239 242 246 251 255 258
Height
781 786 790 794 798 801 803 806 809 811 814 817 819 821 823 825 827 828 830 832 833 834 835 835 835 837 838 840 841 841 841 840 839 838 836 835 834 833 833 831 830 830 832
775 780 783 789 794 797 798 801 804 807 810 813 815 817 819 821 822 824 826 828 829 830 832 832 832 834 835 836 837 837 836 837 836 834 833 832 831 831 830 830 828 827 827
770 775 779 782 787 790 793 796 800 802 805 808 811 813 814 816 817 819 821 822 824 826 827 828 828 830 830 831 832 832 833 833 833 832 831 830 829 828 827 826 824 824 824
764 769 773 775 779 784 787 792 795 797 799 802 804 807 809 811 813 814 816 817 819 820 821 822 823 824 825 825 826 826 828 829 828 827 826 825 824 823 822 820 819 818 818
760 765 766 771 774 780 783 785 790 794 795 796 798 801 803 805 806 808 810 811 812 813 814 815 816 817 818 819 819 820 821 821 821 821 820 819 818 817 816 814 813 812 811
756 758 762 766 770 775 779 782 785 788 791 792 792 794 797 798 800 802 803 805 806 807 807 808 809 811 811 812 813 814 815 815 814 814 813 812 811 810 810 809 808 808 808
751 755 759 762 767 770 775 778 781 782 785 787 787 789 790 792 795 797 798 799 799 801 802 802 803 803 804 805 807 807 807 808 808 807 805 804 803 802 803 803 802 801 800
746 751 755 759 763 768 771 773 776 777 778 779 782 784 786 788 789 791 792 793 794 795 795 795 795 797 798 799 800 801 801 801 802 801 799 797 796 796 795 795 794 794 794
739 742 747 754 760 764 769 770 772 774 775 776 778 780 782 783 784 785 786 787 788 789 789 790 790 791 793 795 796 796 796 796 796 795 793 792 790 790 789 787 786 787 785
734 738 745 750 753 759 763 767 771 771 774 775 776 778 779 780 781 781 782 783 784 786 786 786 788 789 791 792 793 793 792 791 790 788 787 785 784 782 782 781 780 779 780
731 736 741 745 751 755 760 765 767 769 771 772 774 776 777 779 779 780 780 781 782 784 785 786 787 788 789 790 790 790 789 788 786 785 783 781 779 777 776 775 775 774 773
728 731 736 743 746 752 757 761 765 768 771 772 772 775 777 778 780 779 779 780 780 782 784 785 786 788 788 788 789 790 789 787 785 783 782 780 777 774 772 772 771 769 767
723 730 735 738 746 753 755 758 763 767 769 771 773 775 777 780 780 779 778 778 778 781 783 784 786 788 789 790 790 789 788 785 785 783 783 781 779 776 773 771 769 768 766
718 725 733 734 741 748 752 757 760 763 766 768 772 774 777 779 780 780 779 780 780 781 782 785 787 789 789 789 789 789 788 787 786 785 785 783 782 779 776 775 774 772 770
713 721 729 734 740 745 749 754 759 761 762 764 766 769 773 776 777 778 779 780 781 781 783 786 787 788 790 790 790 790 790 790 788 787 787 785 785 782 781 780 778 778 777
711 720 725 731 741 746 750 753 757 760 762 764 766 767 769 772 775 777 779 780 782 782 782 784 786 787 788 788 789 790 790 790 788 788 788 788 787 786 784 783 782 782 783
709 720 723 727 735 740 745 753 755 759 761 763 764 765 766 768 772 775 776 777 779 780 781 783 784 784 785 786 788 789 789 789 789 788 789 790 790 789 788 786 785 784 784
713 716 716 723 731 737 741 747 750 754 757 760 762 763 765 766 767 770 772 774 776 777 778 779 781 782 784 785 786 787 787 787 787 787 788 790 790 789 788 787 787 787 786
707 711 715 721 727 731 737 743 747 751 755 757 758 760 762 764 764 765 768 770 771 773 775 777 778 780 781 783 784 784 785 785 785 787 788 788 789 789 789 788 787 787 787
703 707 714 718 726 729 733 737 742 746 750 754 755 756 757 760 759 760 764 766 768 770 771 773 775 777 778 780 781 781 783 784 783 784 785 787 787 786 786 787 787 787 786
698 705 709 713 720 725 731 734 737 740 743 747 749 752 751 750 752 755 758 761 764 766 768 770 772 774 776 778 779 779 780 781 781 781 782 783 784 785 785 785 785 785 785
694 707 707 713 718 724 727 731 734 736 737 742 743 748 750 749 750 751 753 756 759 762 765 768 769 771 773 775 776 777 777 777 777 777 779 781 781 781 782 782 782 782 782
702 712 713 716 720 724 726 727 730 733 734 736 738 742 743 744 747 747 748 752 755 759 762 765 767 768 770 771 772 773 774 774 773 774 775 776 777 777 778 778 778 778 778
700 708 713 716 716 721 723 723 727 730 732 733 733 736 737 739 743 744 744 747 751 754 758 761 763 764 766 767 768 769 770 770 771 770 770 772 772 772 773 773 773 773 772
705 707 704 709 713 718 719 720 722 724 725 728 729 731 733 736 741 740 743 743 746 750 753 757 760 762 763 764 765 765 767 768 768 768 767 767 768 768 767 767 767 767 767
699 697 699 705 709 711 713 714 716 718 721 723 726 727 729 731 734 737 738 740 742 744 749 753 756 758 760 760 760 761 762 763 763 763 763 762 762 762 763 762 763 762 761